Vorticity
2 7 8 9 18 22 43 24 5 5 7 14 13 9 10 16 15 17 18 18 2 16 28 14 13 42 29 21 11 9 7 -3 12 8 7 29 -55 9 23 -1 10 3 4 3
4 8 9 10 20 36 28 14 4 10 10 15 13 14 18 21 27 23 26 24 27 9 13 33 15 2 42 26 13 10 7 -0 18 20 -27 25 28 -79 57 -19 1 5 4 3
4 6 13 10 19 39 20 10 7 13 18 11 18 20 14 19 17 22 24 15 16 22 4 16 33 14 33 30 19 12 8 11 -8 -11 18 -1 -12 34 -0 -10 5 9 5 4
3 8 11 11 20 36 32 12 8 7 21 13 25 38 34 27 26 25 25 3 -3 3 13 35 13 39 4 39 26 10 11 8 -4 25 -3 -0 1 12 3 82 -18 2 5 6
2 9 10 13 18 32 23 7 9 17 12 10 15 4 3 11 13 16 26 31 25 21 20 14 38 11 35 9 47 21 16 8 -0 -1 9 -21 -23 25 36 -50 -21 15 7 5
4 10 10 15 17 26 26 10 10 14 13 13 -2 0 6 8 2 5 4 -6 -13 4 33 27 50 25 9 31 11 41 16 11 1 10 -0 2 -40 -11 10 100 -13 -7 4 6
3 11 11 14 30 23 34 12 10 8 14 13 12 -0 5 6 7 13 12 19 15 5 -0 1 21 69 20 5 26 40 33 7 7 -0 19 39 15 -10 30 -53 11 8 2 4
6 14 12 10 18 25 28 13 4 7 7 21 2 9 1 12 10 7 4 7 30 33 46 17 14 10 76 20 12 23 53 12 12 5 -13 -9 -0 -9 7 -13 57 38 1 5
7 12 9 15 23 25 18 14 5 7 14 13 -6 3 3 8 15 11 7 16 -0 7 25 38 24 18 17 74 18 20 45 18 14 4 -5 -0 5 59 10 32 -6 -16 -5 -3
2 11 10 12 24 20 28 27 4 2 1 14 5 19 11 16 14 16 7 8 12 19 4 36 39 22 10 39 52 23 36 27 15 10 9 13 8 5 29 14 24 2 13 -1
4 10 8 12 19 24 26 23 10 2 5 6 8 3 9 8 7 1 5 8 7 57 19 11 27 28 -2 53 53 33 32 32 16 10 16 -19 -24 -12 -6 28 5 -9 -23 11
4 8 9 9 14 26 27 22 14 5 2 5 9 6 10 8 10 3 4 6 12 24 20 20 -6 35 34 54 44 37 35 47 14 8 -10 9 5 -7 -10 5 81 32 55 6
3 7 4 10 15 24 22 33 13 11 6 2 8 11 9 9 15 10 0 8 28 12 11 28 39 32 7 48 44 29 49 43 15 9 -4 11 -5 15 -40 -43 -30 -13 43 -24
4 11 7 9 16 18 29 28 23 11 4 5 4 4 10 8 14 11 9 8 24 7 23 6 -5 43 19 51 47 23 51 39 14 6 -2 -1 16 -6 -6 36 16 -8 6 16
4 5 10 7 11 15 17 35 35 13 3 3 2 8 9 10 13 4 10 11 36 -2 22 15 22 35 41 46 36 26 48 46 12 2 9 -6 -11 28 68 60 -27 12 33 8
4 2 7 9 9 12 20 29 38 14 1 8 6 9 7 8 5 7 9 0 50 6 17 3 24 42 47 37 29 28 52 53 13 6 6 3 -22 -36 7 19 -2 -18 24 10
4 4 9 11 9 12 21 25 40 25 8 3 1 6 6 15 6 10 7 16 44 -5 32 31 18 62 22 33 31 40 56 48 12 -4 17 22 3 1 7 -31 -29 14 10 29
4 5 8 8 8 21 5 26 35 43 1 7 6 4 10 11 7 12 3 32 23 24 7 26 33 50 45 23 40 64 66 25 -5 7 14 12 15 -0 34 -3 8 -1 19 15
3 1 5 7 10 8 11 15 30 53 10 -0 5 6 13 11 13 4 -1 33 15 13 8 21 32 51 33 31 45 38 64 -1 -10 -5 24 -0 11 -5 -33 12 3 4 -2 0
2 0 6 8 11 9 7 20 20 44 46 5 -0 3 12 7 10 6 10 36 30 16 35 30 58 52 42 49 46 49 35 -10 -12 18 -3 20 -7 2 2 -13 2 7 -17 -8
2 2 4 7 8 7 4 14 17 34 42 2 3 5 7 9 1 6 8 29 19 6 43 28 15 51 45 61 32 55 21 -30 -56 37 17 12 10 23 0 -20 -17 -21 38 22
2 8 9 8 8 7 5 11 26 39 41 9 1 4 8 12 10 9 9 55 26 28 7 54 -11 -10 42 37 42 26 -13 -2 15 10 7 -3 1 2 1 10 10 17 4 -7
-2 5 8 7 8 5 8 6 12 30 41 26 2 2 6 9 3 12 1 48 18 25 38 39 25 -33 11 39 -21 -4 -23 -8 41 2 4 4 -6 11 7 -71 -2 0 9 16
3 2 6 7 11 6 8 6 7 21 43 41 6 3 4 9 8 10 -2 10 53 30 36 16 8 0 60 -41 -31 20 25 42 7 -3 28 17 19 9 18 -5 30 9 9 9
3 1 7 3 9 5 8 6 7 18 29 58 8 1 3 7 9 5 12 5 54 10 5 -20 -9 62 62 -37 2 10 12 11 16 4 19 5 8 6 2 -23 -32 19 19 37
3 2 4 5 8 7 7 7 7 10 25 50 28 3 0 5 5 8 7 9 32 12 35 -7 22 45 17 -11 48 -4 12 8 17 15 28 26 27 1 16 -42 19 2 30 20
Height
5697 5682 5664 5647 5629 5610 5596 5587 5580 5573 5565 5557 5547 5541 5532 5525 5519 5516 5513 5512 5511 5512 5513 5516 5522 5528 5536 5551 5564 5583 5599 5618 5633 5650 5667 5679 5697 5697 5707 5725 5737 5748 5760 5770
5692 5675 5654 5637 5621 5601 5586 5580 5575 5567 5558 5548 5540 5532 5521 5515 5510 5505 5501 5501 5501 5501 5503 5505 5509 5517 5523 5533 5548 5564 5580 5598 5616 5632 5652 5666 5681 5691 5699 5706 5724 5740 5752 5759
5684 5666 5646 5629 5612 5597 5581 5575 5569 5560 5554 5543 5533 5526 5515 5509 5503 5498 5496 5494 5492 5493 5493 5494 5497 5503 5513 5519 5531 5545 5564 5582 5595 5612 5636 5652 5669 5681 5692 5691 5706 5723 5740 5750
5675 5657 5638 5621 5604 5587 5578 5571 5563 5555 5545 5536 5528 5521 5510 5504 5498 5494 5492 5490 5487 5485 5483 5483 5485 5490 5498 5504 5512 5528 5545 5561 5580 5595 5619 5639 5652 5670 5679 5684 5700 5718 5732 5740
5668 5649 5631 5613 5598 5584 5575 5564 5557 5550 5540 5532 5524 5516 5507 5500 5494 5488 5484 5481 5478 5474 5471 5471 5471 5475 5479 5487 5494 5510 5526 5544 5562 5582 5604 5622 5640 5655 5669 5676 5692 5708 5721 5734
5662 5645 5630 5610 5591 5577 5566 5559 5551 5544 5536 5527 5520 5512 5506 5498 5490 5484 5479 5474 5469 5465 5460 5456 5453 5456 5461 5467 5474 5489 5506 5526 5545 5565 5586 5603 5625 5643 5657 5665 5680 5699 5711 5725
5657 5638 5624 5607 5590 5572 5561 5555 5549 5540 5530 5523 5515 5507 5501 5492 5485 5479 5473 5466 5460 5452 5448 5444 5440 5439 5446 5448 5454 5466 5486 5507 5527 5548 5573 5595 5616 5631 5648 5661 5667 5684 5704 5717
5652 5631 5617 5599 5581 5566 5556 5548 5539 5532 5524 5518 5511 5503 5496 5486 5478 5470 5461 5453 5445 5438 5431 5427 5425 5424 5425 5431 5439 5448 5466 5486 5508 5533 5558 5582 5603 5620 5642 5655 5660 5671 5697 5711
5645 5631 5612 5596 5577 5563 5550 5545 5539 5531 5523 5512 5509 5498 5490 5478 5470 5462 5453 5442 5433 5425 5418 5409 5403 5403 5406 5410 5422 5432 5448 5470 5493 5519 5543 5570 5594 5613 5634 5645 5653 5669 5686 5705
5644 5630 5610 5593 5577 5561 5549 5540 5533 5525 5517 5508 5501 5492 5482 5474 5463 5454 5445 5432 5423 5414 5404 5395 5389 5387 5389 5391 5403 5417 5434 5454 5480 5504 5536 5566 5584 5603 5621 5636 5647 5660 5677 5697
5641 5627 5611 5591 5576 5560 5546 5536 5528 5521 5513 5504 5492 5490 5477 5466 5457 5445 5435 5422 5408 5397 5388 5380 5377 5374 5373 5371 5381 5399 5421 5440 5469 5493 5528 5555 5574 5598 5613 5627 5642 5657 5672 5685
5639 5623 5606 5592 5574 5558 5544 5531 5523 5516 5510 5501 5490 5487 5471 5461 5451 5438 5426 5411 5398 5384 5377 5368 5362 5357 5354 5353 5363 5382 5406 5428 5461 5484 5524 5550 5566 5588 5605 5620 5636 5652 5666 5682
5635 5620 5605 5593 5573 5555 5539 5527 5519 5512 5504 5497 5488 5482 5471 5459 5449 5436 5419 5406 5390 5380 5372 5363 5353 5344 5342 5342 5351 5369 5394 5419 5456 5486 5520 5542 5560 5580 5600 5612 5631 5647 5660 5671
5634 5618 5599 5583 5566 5549 5537 5523 5515 5507 5500 5492 5486 5473 5468 5457 5444 5431 5419 5403 5387 5376 5367 5358 5349 5338 5335 5332 5342 5359 5385 5412 5448 5481 5515 5537 5559 5580 5595 5609 5626 5642 5655 5667
5634 5620 5607 5589 5573 5555 5540 5526 5514 5506 5497 5491 5484 5475 5464 5452 5438 5426 5412 5398 5385 5373 5361 5351 5344 5335 5329 5330 5337 5353 5377 5408 5442 5483 5511 5536 5554 5575 5590 5610 5626 5639 5651 5663
5634 5620 5608 5592 5575 5556 5539 5524 5512 5504 5496 5491 5481 5476 5465 5453 5438 5426 5411 5395 5381 5369 5358 5347 5339 5332 5328 5331 5339 5352 5374 5407 5445 5484 5510 5533 5550 5568 5589 5606 5622 5635 5646 5658
5633 5619 5606 5593 5576 5560 5543 5525 5513 5503 5495 5489 5481 5473 5464 5455 5441 5427 5411 5392 5377 5368 5354 5342 5332 5325 5325 5331 5341 5355 5376 5410 5450 5484 5508 5529 5551 5570 5588 5605 5621 5633 5644 5653
5632 5618 5605 5591 5576 5558 5543 5527 5513 5503 5496 5488 5482 5473 5464 5453 5443 5427 5408 5389 5380 5369 5356 5340 5328 5319 5321 5329 5343 5359 5383 5420 5454 5482 5508 5532 5551 5571 5587 5602 5615 5628 5638 5648
5630 5617 5603 5588 5575 5563 5545 5529 5515 5502 5498 5489 5482 5475 5466 5459 5451 5435 5417 5400 5386 5374 5362 5347 5332 5324 5324 5333 5348 5365 5394 5430 5461 5489 5510 5532 5552 5570 5585 5599 5614 5623 5633 5644
5629 5616 5603 5589 5574 5559 5545 5530 5515 5502 5495 5489 5484 5476 5466 5454 5448 5438 5426 5410 5396 5384 5374 5361 5344 5334 5335 5347 5368 5388 5420 5458 5482 5499 5515 5536 5551 5570 5585 5599 5611 5619 5629 5639
5628 5617 5604 5592 5576 5565 5548 5534 5519 5508 5502 5492 5486 5478 5470 5462 5451 5440 5427 5413 5404 5396 5388 5381 5373 5362 5365 5381 5396 5416 5447 5477 5487 5504 5521 5538 5556 5572 5586 5597 5607 5615 5626 5634
5626 5614 5602 5590 5578 5565 5550 5537 5524 5511 5497 5494 5488 5485 5477 5470 5462 5451 5438 5423 5418 5411 5405 5399 5399 5399 5410 5414 5425 5448 5474 5487 5494 5509 5526 5544 5559 5571 5587 5593 5605 5617 5625 5632
5624 5613 5602 5591 5578 5565 5553 5538 5524 5512 5501 5496 5492 5488 5482 5477 5470 5460 5450 5440 5432 5426 5422 5422 5422 5423 5427 5437 5453 5467 5475 5486 5502 5519 5534 5548 5560 5573 5587 5596 5607 5614 5621 5629
5623 5613 5603 5593 5582 5569 5555 5541 5528 5517 5506 5497 5495 5492 5488 5483 5479 5472 5464 5453 5447 5443 5440 5439 5444 5442 5457 5456 5468 5479 5491 5502 5515 5525 5538 5551 5562 5574 5585 5594 5602 5609 5619 5625
5620 5611 5602 5593 5583 5571 5559 5547 5535 5521 5508 5498 5495 5495 5494 5489 5485 5481 5475 5468 5460 5460 5460 5455 5460 5466 5470 5473 5486 5490 5497 5508 5520 5531 5543 5555 5565 5575 5581 5589 5599 5609 5616 5622
5618 5609 5600 5590 5581 5571 5559 5549 5537 5527 5516 5505 5499 5496 5496 5494 5491 5488 5485 5479 5473 5470 5468 5469 5470 5471 5484 5490 5490 5496 5507 5518 5528 5540 5551 5560 5567 5576 5579 5588 5599 5602 5613 5618